Location: Unspecified
(38.9820°N, 94.4650°W)
Time: 20:28:47
(UTC-05:00)

Hubble Space Telescope - Visible Passes

Search period start: 29 May 2017 00:00
Search period end: 08 June 2017 00:00
Orbit: 538 x 542 km, 28.5° (Epoch: 29 May)

Date Brightness Start Highest point End Pass type
(mag) Time Alt. Az. Time Alt. Az. Time Alt. Az.
29 May 2.8 21:04:00 10° S 21:05:29 12° SSE 21:06:59 10° SE visible
29 May 3.2 22:43:05 10° SW 22:43:27 11° SW 22:43:27 11° SW visible
30 May 2.8 22:32:54 10° SW 22:34:14 15° SSW 22:34:14 15° SSW visible
31 May 2.5 22:22:44 10° SW 22:24:55 18° SSW 22:24:55 18° SSW visible
01 Jun 2.4 22:12:38 10° SW 22:15:27 18° S 22:15:27 18° S visible
02 Jun 2.4 22:02:34 10° SW 22:05:21 17° S 22:05:55 17° S visible
03 Jun 2.6 21:52:34 10° SW 21:55:11 16° S 21:56:20 15° S visible
04 Jun 2.8 21:42:38 10° SW 21:45:00 15° SSW 21:46:42 12° SSE visible
05 Jun 2.9 21:32:50 10° SW 21:34:48 13° SSW 21:36:47 10° SSE visible
06 Jun 3.0 21:23:15 10° SW 21:24:37 11° SSW 21:25:58 10° S visible
